EZY35X LDSP-EGCC

Flight info

Callsign EZY35X
Flight time N/A
Altitude 36000
Route LESTA
Aircraft A320/M-SDE3FGHIRWY/LB1

Departure

Time N/A
Airport Split Saint Jerome Airport (LDSP)

Arrival

Time 2026-05-06 12:47
Airport Manchester Airport (EGCC)
Time Latitude Longitude Altitude Speed Heading
2026-05-06 12:18 52.85280 1.11072 35003 ft 439 kts 265°
2026-05-06 12:18 52.85069 1.06029 35003 ft 439 kts 265°
2026-05-06 12:18 52.84632 0.95952 34698 ft 438 kts 265°
2026-05-06 12:19 52.84409 0.90930 34465 ft 438 kts 265°
2026-05-06 12:19 52.84187 0.85917 34228 ft 437 kts 265°
2026-05-06 12:19 52.83965 0.80902 34020 ft 437 kts 265°
2026-05-06 12:19 52.83745 0.75964 33985 ft 436 kts 265°
2026-05-06 12:20 52.83293 0.65945 33997 ft 437 kts 265°
2026-05-06 12:20 52.82831 0.55924 34012 ft 437 kts 265°
2026-05-06 12:21 52.82360 0.45911 34007 ft 436 kts 264°
2026-05-06 12:21 52.81887 0.35993 34019 ft 435 kts 264°
2026-05-06 12:22 52.81397 0.26022 34018 ft 436 kts 264°
2026-05-06 12:22 52.80897 0.16054 34021 ft 435 kts 264°
2026-05-06 12:23 52.80393 0.06088 34021 ft 435 kts 264°
2026-05-06 12:23 52.80141 0.01161 33784 ft 436 kts 264°
2026-05-06 12:23 52.79884 -0.03825 33524 ft 436 kts 264°
2026-05-06 12:24 52.79625 -0.08818 33249 ft 436 kts 264°
2026-05-06 12:24 52.79364 -0.13809 32976 ft 437 kts 264°
2026-05-06 12:24 52.79101 -0.18813 32704 ft 438 kts 264°
2026-05-06 12:24 52.78835 -0.23824 32439 ft 438 kts 264°
2026-05-06 12:25 52.78566 -0.28845 32175 ft 439 kts 264°
2026-05-06 12:25 52.78297 -0.33867 31433 ft 441 kts 264°
2026-05-06 12:25 52.78021 -0.38938 30360 ft 445 kts 264°
2026-05-06 12:25 52.77739 -0.44062 29148 ft 449 kts 264°
2026-05-06 12:26 52.77457 -0.49134 28065 ft 450 kts 264°
2026-05-06 12:26 52.77171 -0.54270 27252 ft 446 kts 264°
2026-05-06 12:26 52.76886 -0.59312 26562 ft 438 kts 264°
2026-05-06 12:26 52.76603 -0.64291 25831 ft 432 kts 264°
2026-05-06 12:27 52.76324 -0.69197 25130 ft 427 kts 264°
2026-05-06 12:27 52.76046 -0.74061 24434 ft 427 kts 264°
2026-05-06 12:27 52.75764 -0.78939 23736 ft 426 kts 264°
2026-05-06 12:27 52.75482 -0.83779 22987 ft 422 kts 264°
2026-05-06 12:28 52.75201 -0.88522 22350 ft 419 kts 264°
2026-05-06 12:28 52.74918 -0.93266 21710 ft 413 kts 264°
2026-05-06 12:28 52.74641 -0.97943 21109 ft 406 kts 265°
2026-05-06 12:28 52.74690 -1.02565 20523 ft 400 kts 277°
2026-05-06 12:29 52.75306 -1.06993 19986 ft 394 kts 289°
2026-05-06 12:29 52.76444 -1.11089 19437 ft 392 kts 300°
2026-05-06 12:29 52.78050 -1.14705 18899 ft 390 kts 310°
2026-05-06 12:29 52.79831 -1.18059 18376 ft 386 kts 310°
2026-05-06 12:30 52.81589 -1.21385 17781 ft 383 kts 310°
2026-05-06 12:30 52.83309 -1.24647 17285 ft 379 kts 310°
2026-05-06 12:30 52.85031 -1.27928 16766 ft 376 kts 310°
2026-05-06 12:30 52.86733 -1.31170 16255 ft 373 kts 310°
2026-05-06 12:31 52.88434 -1.34412 15748 ft 372 kts 310°
2026-05-06 12:31 52.90122 -1.37639 15242 ft 369 kts 310°
2026-05-06 12:31 52.91794 -1.40841 14738 ft 365 kts 310°
2026-05-06 12:31 52.93453 -1.44017 14240 ft 363 kts 310°
2026-05-06 12:32 52.95100 -1.47174 13739 ft 361 kts 310°
2026-05-06 12:32 52.96719 -1.50281 13223 ft 360 kts 310°
2026-05-06 12:32 52.98351 -1.53415 12734 ft 358 kts 310°
2026-05-06 12:32 52.99972 -1.56530 12248 ft 355 kts 311°
2026-05-06 12:33 53.01562 -1.59590 12003 ft 343 kts 311°
2026-05-06 12:33 53.03083 -1.62523 11878 ft 328 kts 311°
2026-05-06 12:33 53.04538 -1.65334 11748 ft 315 kts 311°
2026-05-06 12:33 53.05936 -1.68039 11620 ft 303 kts 311°
2026-05-06 12:34 53.07267 -1.70616 11498 ft 292 kts 311°
2026-05-06 12:34 53.08565 -1.73136 11350 ft 282 kts 311°
2026-05-06 12:34 53.09833 -1.75598 11059 ft 279 kts 311°
2026-05-06 12:34 53.11097 -1.78044 10703 ft 278 kts 311°
2026-05-06 12:35 53.12352 -1.80468 10342 ft 277 kts 311°
2026-05-06 12:35 53.13606 -1.82898 9955 ft 277 kts 311°
2026-05-06 12:35 53.14858 -1.85323 9608 ft 274 kts 311°
2026-05-06 12:35 53.16093 -1.87720 9210 ft 273 kts 311°
2026-05-06 12:36 53.17323 -1.90120 8808 ft 272 kts 311°
2026-05-06 12:36 53.18532 -1.92479 8442 ft 270 kts 312°
2026-05-06 12:36 53.19731 -1.94823 8277 ft 260 kts 311°
2026-05-06 12:36 53.20881 -1.97078 8115 ft 251 kts 312°
2026-05-06 12:37 53.21995 -1.99264 7877 ft 245 kts 312°
2026-05-06 12:37 53.23096 -2.01425 7540 ft 244 kts 312°
2026-05-06 12:37 53.24179 -2.03606 7213 ft 244 kts 307°
2026-05-06 12:37 53.24763 -2.06238 6905 ft 247 kts 276°
2026-05-06 12:38 53.24601 -2.09104 6598 ft 249 kts 262°
2026-05-06 12:38 53.24254 -2.11938 6222 ft 250 kts 261°
2026-05-06 12:38 53.23892 -2.14740 5881 ft 250 kts 260°
2026-05-06 12:38 53.23533 -2.17573 5533 ft 250 kts 260°
2026-05-06 12:39 53.23180 -2.20415 5180 ft 250 kts 259°
2026-05-06 12:39 53.22839 -2.23244 4871 ft 248 kts 260°
2026-05-06 12:39 53.22506 -2.26076 4547 ft 248 kts 260°
2026-05-06 12:39 53.22179 -2.28894 4198 ft 247 kts 260°
2026-05-06 12:40 53.21858 -2.31703 3896 ft 245 kts 261°
2026-05-06 12:40 53.21540 -2.34497 3565 ft 245 kts 261°
2026-05-06 12:40 53.21228 -2.37281 3264 ft 243 kts 260°
2026-05-06 12:40 53.20924 -2.40038 3034 ft 241 kts 261°
2026-05-06 12:41 53.20619 -2.42760 3002 ft 243 kts 260°
2026-05-06 12:41 53.20298 -2.45544 3005 ft 244 kts 260°
2026-05-06 12:41 53.19982 -2.48310 3005 ft 238 kts 260°
2026-05-06 12:41 53.19928 -2.50952 2940 ft 223 kts 287°
2026-05-06 12:42 53.20692 -2.53085 2717 ft 213 kts 326°
2026-05-06 12:42 53.22041 -2.53714 2527 ft 203 kts 12°
2026-05-06 12:42 53.23213 -2.52506 2511 ft 204 kts 57°
2026-05-06 12:42 53.23822 -2.50458 2508 ft 191 kts 60°
2026-05-06 12:43 53.24598 -2.48721 2520 ft 183 kts 51°
2026-05-06 12:43 53.25365 -2.47169 2515 ft 172 kts 52°
2026-05-06 12:43 53.26128 -2.45612 2412 ft 170 kts 51°
2026-05-06 12:43 53.26865 -2.44103 2225 ft 168 kts 51°
2026-05-06 12:44 53.27601 -2.42592 2023 ft 164 kts 51°
2026-05-06 12:44 53.28296 -2.41165 1793 ft 153 kts 51°
2026-05-06 12:44 53.28943 -2.39834 1580 ft 144 kts 51°
2026-05-06 12:44 53.29563 -2.38557 1396 ft 139 kts 51°
2026-05-06 12:45 53.30171 -2.37307 1198 ft 138 kts 51°
2026-05-06 12:45 53.30773 -2.36070 981 ft 137 kts 51°
2026-05-06 12:45 53.31991 -2.33559 630 ft 140 kts 51°
2026-05-06 12:46 53.32593 -2.32310 427 ft 140 kts 50°
2026-05-06 12:46 53.33196 -2.31062 261 ft 137 kts 50°
2026-05-06 12:46 53.33755 -2.29910 230 ft 108 kts 51°
2026-05-06 12:46 53.34120 -2.29157 231 ft 64 kts 51°
2026-05-06 12:47 53.34332 -2.28723 224 ft 36 kts 48°
2026-05-06 12:47 53.34537 -2.28516 228 ft 32 kts 24°
2026-05-06 12:47 53.34691 -2.28409 231 ft 16 kts 29°
2026-05-06 12:47 53.34773 -2.28273 231 ft 18 kts 51°
2026-05-06 12:48 53.34859 -2.28095 229 ft 22 kts 50°
2026-05-06 12:48 53.34962 -2.27883 231 ft 25 kts 52°
2026-05-06 12:48 53.35073 -2.27651 233 ft 26 kts 51°
2026-05-06 12:48 53.35188 -2.27415 237 ft 26 kts 51°
2026-05-06 12:49 53.35281 -2.27227 240 ft 14 kts 49°
2026-05-06 12:49 53.35356 -2.27187 245 ft 14 kts 346°
2026-05-06 12:49 53.35468 -2.27318 248 ft 22 kts 321°
2026-05-06 12:49 53.35558 -2.27439 246 ft 8 kts 321°
2026-05-06 12:50 53.35604 -2.27500 245 ft 6 kts 321°
2026-05-06 12:50 53.35636 -2.27543 246 ft 6 kts 322°
2026-05-06 12:50 53.35678 -2.27598 247 ft 9 kts 322°
2026-05-06 12:50 53.35736 -2.27647 249 ft 9 kts 342°
2026-05-06 12:51 53.35794 -2.27697 251 ft 11 kts 315°
2026-05-06 12:51 53.35856 -2.27817 253 ft 14 kts 311°
2026-05-06 12:51 53.35952 -2.27857 255 ft 16 kts 341°
2026-05-06 12:51 53.36049 -2.27986 255 ft 20 kts 318°
2026-05-06 12:52 53.36144 -2.28129 255 ft 13 kts 316°
2026-05-06 12:52 53.36206 -2.28143 255 ft 9 kts 30°
2026-05-06 12:52 53.36270 -2.28077 255 ft 13 kts 26°
2026-05-06 12:52 53.36344 -2.28011 255 ft 11 kts 40°
2026-05-06 12:53 53.36411 -2.27918 255 ft 13 kts 19°
2026-05-06 12:53 53.36465 -2.27889 255 ft 6 kts 40°
2026-05-06 12:53 53.36487 -2.27852 255 ft 2 kts 44°
2026-05-06 12:53 53.36489 -2.27848 255 ft 0 kts 44°